Location: Ammerl�gen
(47.2167°N, 9.6000°E)
Time: 13:00:47
(UTC+00:00)

Cosmos 676 Rocket - Pass Details

Date: 03 August 2021
Orbit: 755 x 783 km, 74.0° (Epoch: 26 September)

Event Time Altitude Azimuth Distance (km) Brightness Sun altitude
Exits shadow 00:49:34 39° 147° (SSE) 1,154 4.6 -22.7°
Maximum altitude 00:50:56 49° 105° (ESE) 1,006 4.6 -22.7°
Drops below altitude 10° 00:56:03 10° 32° (NNE) 2,347 7.6 -22.3°
Sets 00:58:31 0° 27° (NNE) 3,278 8.8 -22.2°
